Regional Weather Roundup
Issued by NWS

Home | Current Version | Previous Version | Text Only | Print | Product List | Glossary Off
Versions: 1 2 3 4 5 6 7 8 9 10 11 12 13 14 15 16 17 18 19 20 21 22 23 24 25 26 27 28 29 30 31 32 33 34 35 36 37 38 39 40 41 42 43 44 45 46 47 48 49 50

888
ASUS43 KMKX 270500
RWRWI

WISCONSIN REGIONAL WEATHER ROUNDUP
NATIONAL WEATHER SERVICE MILWAUKEE/SULLIVAN WI
1200 AM CDT THU APR 27 2017

NOTE: "FAIR" INDICATES FEW OR NO CLOUDS BELOW 12,000 FEET WITH NO
SIGNIFICANT WEATHER AND/OR OBSTRUCTIONS TO VISIBILITY.

WIZ001-002-006>008-014>016-023>028-270600-
NORTHWEST WISCONSIN

CITY           SKY/WX    TMP DP  RH WIND       PRES   REMARKS
SUPERIOR ARPT  CLOUDY    29  25  84 CALM      29.62S
ASHLAND        CLOUDY    29  27  92 N12       29.60F WCI  19
HAYWARD        LGT SNOW  31  27  85 N10       29.56S FOG     WCI  22
SIREN          CLOUDY    32  29  88 N8        29.58S WCI  25
CUMBERLAND     CLOUDY    32  30  93 N8        29.56R WCI  25
RICE LAKE      CLOUDY    34  30  85 N12       29.57R WCI  25
CHETEK         CLOUDY    35  30  82 N8        29.55R WCI  28
LADYSMITH      CLOUDY    33  30  88 N12       29.54S WCI  25
EAU CLAIRE     CLOUDY    37  34  87 N7        29.53R WCI  32
MENOMONIE      CLOUDY    37  32  84 NW9       29.55R WCI  30
NEW RICHMOND   CLOUDY    35  31  87 N8        29.58R WCI  28
OSCEOLA        CLOUDY    35  30  82 N7        29.62R WCI  29
$$

WIZ003>005-009-010-017-018-270600-
NORTH CENTRAL WISCONSIN

CITY           SKY/WX    TMP DP  RH WIND       PRES   REMARKS
MANITOWISH WTR LGT SNOW  29  29 100 N10G17    29.50S WCI  20
ARBOR VITAE    CLOUDY    33  31  93 N9        29.48S WCI  25
WOODRUFF       CLOUDY    33  31  93 N9        29.48S WCI  25
RHINELANDER    CLOUDY    35  33  92 N6        29.48S WCI  30
EAGLE RIVER    CLOUDY    32  32 100 N5        29.48S WCI  27
LAND O LAKES   CLOUDY    32  31  95 N8        29.50R FOG     WCI  25
PHILLIPS       CLOUDY    31  29  94 N7        29.51R WCI  24
TOMAHAWK       CLOUDY    33  32  94 N6        29.49S WCI  28
MEDFORD        CLOUDY    35  34  98 N6        29.48S FOG     WCI  29
MERRILL        CLOUDY    37  36  97 N7        29.48S WCI  31
$$

WIZ029-030-035-036-043>047-270600-
CENTRAL WISCONSIN

CITY           SKY/WX    TMP DP  RH WIND       PRES   REMARKS
WAUSAU         CLOUDY    39  35  86 NW9       29.46S WCI  33
MOSINEE        CLOUDY    39  39 100 N7        29.48S WCI  34
MARSHFIELD     CLOUDY    39  36  89 N7        29.47S WCI  34
STEVENS POINT  CLOUDY    40  39  96 NW5       29.48S
WAUPACA        CLOUDY    47  42  82 NW7       29.47F
WAUTOMA        CLOUDY    44  42  93 NW8       29.47S
WISC RAPIDS    CLOUDY    42  39  89 NW9       29.48F
CAMP DOUGLAS   CLOUDY    41  39  93 NW8       29.49S
$$

WIZ011>013-019>022-031-037>040-048>050-270600-
NORTHEAST WISCONSIN

CITY           SKY/WX    TMP DP  RH WIND       PRES   REMARKS
ANTIGO         CLOUDY    38  38  98 N10       29.46R WCI  32
SHAWANO        CLOUDY    49  46  87 NW5       29.45F
OCONTO         CLOUDY    55  51  87 W6        29.43R
STURGEON BAY   CLOUDY    56  52  86 W3        29.43S
GREEN BAY      CLOUDY    52  50  93 W6        29.44S
MANITOWOC      NOT AVBL
APPLETON       CLOUDY    46  45  93 NW8       29.44S
CLINTONVILLE   CLOUDY    46  45  93 W7        29.45F
OSHKOSH        CLOUDY    48  44  86 W9        29.45S
$$

WIZ032>034-041-042-053>061-270600-
SOUTHWEST WISCONSIN

CITY           SKY/WX    TMP DP  RH WIND       PRES   REMARKS
LA CROSSE      CLOUDY    43  38  82 N12       29.51F
SPARTA         CLOUDY    40  38  93 NW3       29.52R
VIROQUA        CLOUDY    39  39 100 N8        29.49F WCI  34
BOSCOBEL       CLOUDY    45  39  79 NW9       29.51S
PRAIRIE DU CHI CLOUDY    42  37  80 NW12      29.51F
PLATTEVILLE    CLOUDY    44  44  97 W8        29.49F
$$

WIZ056-057-062-063-064-067-068-270600-
SOUTH CENTRAL WISCONSIN

CITY           SKY/WX    TMP DP  RH WIND       PRES   REMARKS
REEDSBURG      CLOUDY    43  43  99 NW6       29.47F
BARABOO/DELLS  CLOUDY    44  42  93 NW6       29.46F
LONE ROCK      NOT AVBL
MINERAL POINT  LGT RAIN  45  45 100 NW9       29.48S
MADISON        CLOUDY    48  46  93 NW6       29.44F FOG
MIDDLETON      CLOUDY    48  47  95 NW5       29.46F
WATERTOWN      DRIZZLE   52  52 100 W8        29.45S
MONROE         CLOUDY    46  45  93 NW3       29.45F
JANESVILLE     DRIZZLE   52  50  93 NW3       29.44F
$$

WIZ051-052-058>065-066-070>072-270600-
SOUTHEAST WISCONSIN

CITY           SKY/WX    TMP DP  RH WIND       PRES   REMARKS
MILWAUKEE      RAIN      58  56  93 W3        29.44F FOG
WAUKESHA       RAIN      52  52 100 SW3       29.46S
MILWAUKEE/TIMM RAIN      55  52  88 SW5       29.46R
RACINE         RAIN      58  55  90 W3        29.45F FOG
KENOSHA        RAIN      57  55  93 CALM      29.44F FOG
FOND DU LAC    CLOUDY    49  45  86 NW8       29.46S
SHEBOYGAN      LGT RAIN  53  51  93 NW10      29.43F
WEST BEND      RAIN      54  52  94 W3        29.44F
JUNEAU         CLOUDY    48  47  95 NW5       29.47S
$$

LSZ147-162-270600-
LAKE SUPERIOR

STATION/POSITION TIME  TEMP    WIND        PRES    WAVE
                       AIR SEA DIR/SP/G            HT/PER
                 (UTC) (F)     (DEG/KT/KT) (MB)    (FT/S)
DEVILS ISLAND    0400   28      10/ 15/ 18 1003.7F
SAXON HARBOR     0440   31      30/ 15/ 16 1002.4S
$$

LMZ867-665-643>646-270600-
LAKE MICHIGAN

STATION/POSITION TIME  TEMP    WIND        PRES    WAVE
                       AIR SEA DIR/SP/G            HT/PER
                 (UTC) (F)     (DEG/KT/KT) (MB)    (FT/S)
CHAMBERS ISLAND  0440   48     310/  7/ 11  996.3S
N MID LAKE BUOY  0350   42 37  150/  6/  6  997.7F   2/ 5
NORTHPORT PIER   0440   49        CALM      996.3F
SISTER BAY       0321   54     160/  6/  8   N/A
KEWAUNEE LAKESHO 0424   57     310/  5/  6  996.1
SHEBOYGAN LAKESH 0400   60     210/  3/  3  996.3F
PORT WASHINGTON  0440   58     240/  3/  6  998.0S
MILWAUKEE LAKESH 0420   58     240/  7/  8   N/A
S MID LAKE BUOY  0350   48 42  180/  6/  6  998.4R   1/ 4
KENOSHA   LAKESH 0400   61     220/  5/  7  997.6
$$

TC  - TEMPERATURE IN CELSIUS
VSB - VISIBILITY IN STATUTE MILES
WCI - WIND CHILL INDEX
HX  - HEAT INDEX





USA.gov is the U.S. government's official web portal to all federal, state and local government web resources and services.